INTELSAT 906 (IS-906)

Last updated on Tue Sep 22 2026 00:03:10 GMT+0000 (Coordinated Universal Time)

1 27513U 02041A 26264.57305106 .00000012 00000+0 00000+0 0 9993 2 27513 6.0414 71.6889 0003225 127.1793 72.0359 1.00271395 87993
UTC large
Height (km)
Speed (km/s)
/
Latitude / Longitude
Inclination (degrees)
Orbital Period (minutes)
Azimuth
Elevation
Range (km)
Doppler Factor

Next 0 passes for location: London (51.5072 / 0.1276)

No passes found over London.
INTELSAT 906 (IS-906)